Location: Bennemühlen
(52.5740°N, 9.7135°E)
Time: 15:18:39
(UTC+00:00)

Tiros 1 - All Passes

Search period start: 10 February 2026 00:00
Search period end: 20 February 2026 00:00
Orbit: 619 x 649 km, 48.4° (Epoch: 10 February)

Date Brightness Start Highest point End Pass type
(mag) Time Alt. Az. Time Alt. Az. Time Alt. Az.
10 Feb - 10:38:46 10° S 10:41:47 18° SE 10:44:48 10° ESE daylight
10 Feb - 12:18:38 10° SW 12:22:53 40° SSE 12:27:10 10° E daylight
10 Feb - 13:59:58 10° W 14:04:23 50° S 14:08:48 10° ESE daylight
10 Feb - 15:41:47 10° W 15:45:47 31° SSW 15:49:47 10° SE daylight
10 Feb - 17:25:49 10° SW 17:26:38 10° SW 17:27:27 10° SSW visible
11 Feb - 10:59:13 10° SSW 11:03:04 27° SSE 11:06:53 10° E daylight
11 Feb - 12:40:00 10° WSW 12:44:23 48° S 12:48:46 10° E daylight
11 Feb - 14:21:34 10° W 14:25:53 44° SSW 14:30:14 10° ESE daylight
11 Feb - 16:03:42 10° W 16:07:05 21° SSW 16:10:29 10° SSE daylight
12 Feb - 09:40:47 10° S 09:43:24 15° SE 09:46:00 10° ESE daylight
12 Feb - 11:20:14 10° SW 11:24:26 37° SSE 11:28:38 10° E daylight
12 Feb - 13:01:30 10° WSW 13:05:54 51° S 13:10:20 10° ESE daylight
12 Feb - 14:43:13 10° W 14:47:20 34° SSW 14:51:27 10° SE daylight
12 Feb - 16:26:20 10° WSW 16:28:17 13° SW 16:30:13 10° SSW daylight
13 Feb - 10:00:59 10° SSW 10:04:38 24° SSE 10:08:17 10° E daylight
13 Feb - 11:41:32 10° WSW 11:45:54 46° S 11:50:17 10° E daylight
13 Feb - 13:23:03 10° W 13:27:25 46° S 13:31:47 10° ESE daylight
13 Feb - 15:05:03 10° W 15:08:41 23° SSW 15:12:18 10° SSE daylight
14 Feb - 08:43:00 10° SSE 08:45:02 13° SE 08:47:04 10° ESE daylight
14 Feb - 10:21:51 10° SW 10:25:59 34° SSE 10:30:06 10° E daylight
14 Feb - 12:02:59 10° WSW 12:07:25 51° S 12:11:50 10° ESE daylight
14 Feb - 13:44:41 10° W 13:48:53 37° SSW 13:53:04 10° SE daylight
14 Feb - 15:27:21 10° WSW 15:29:54 15° SW 15:32:27 10° S daylight
15 Feb - 09:02:47 10° SSW 09:06:13 21° SSE 09:09:39 10° E daylight
15 Feb - 10:43:05 10° WSW 10:47:26 44° SSE 10:51:46 10° E daylight
15 Feb - 12:24:32 10° W 12:28:56 48° S 12:33:19 10° ESE daylight
15 Feb - 14:06:27 10° W 14:10:15 26° SSW 14:14:03 10° SSE daylight
16 Feb - 07:45:36 10° SSE 07:46:39 11° SE 07:47:43 10° SE daylight
16 Feb - 09:23:30 10° SW 09:27:31 31° SSE 09:31:32 10° E daylight
16 Feb - 11:04:29 10° WSW 11:08:55 50° S 11:13:20 10° ESE daylight
16 Feb - 12:46:09 10° W 12:50:25 40° SSW 12:54:40 10° SE daylight
16 Feb - 14:28:32 10° WSW 14:31:31 17° SW 14:34:29 10° S daylight
17 Feb - 08:04:38 10° S 08:07:48 18° SE 08:10:57 10° ESE daylight
17 Feb - 09:44:38 10° SW 09:48:56 41° SSE 09:53:14 10° E daylight
17 Feb - 11:26:01 10° W 11:30:26 50° S 11:34:51 10° ESE daylight
17 Feb - 13:07:51 10° W 13:11:48 29° SSW 13:15:45 10° SE daylight
18 Feb - 08:25:10 10° SSW 08:29:04 28° SSE 08:32:58 10° E daylight
18 Feb - 10:06:00 10° WSW 10:10:25 49° S 10:14:50 10° E daylight
18 Feb - 11:47:36 10° W 11:51:55 43° SSW 11:56:14 10° ESE daylight
18 Feb - 13:29:48 10° W 13:33:06 20° SSW 13:36:23 10° SSE daylight
19 Feb - 07:06:36 10° S 07:09:23 16° SE 07:12:11 10° ESE daylight
19 Feb - 08:46:12 10° SW 08:50:27 38° SSE 08:54:42 10° E daylight
19 Feb - 10:27:29 10° WSW 10:31:55 51° S 10:36:21 10° ESE daylight
19 Feb - 12:09:16 10° W 12:13:21 33° SSW 12:17:25 10° SE daylight
19 Feb - 13:52:36 10° WSW 13:54:15 12° SW 13:55:54 10° SSW daylight
